[[{"header":{"parameterUnit":"m.s-1","parameterCategory":1,"la1":30.2991,"la2":30.254,"lo1":-89.0895,"lo2":-89.0444,"dy":0.0017,"dx":0.0017,"nx":28,"ny":28,"refTime":"2024-09-25T09:00:00:Z","depth":0,"parameterNumber":2,"parameterNumberName":"U-component_of_WINDS"},"data":[0,0,0,0,0,0,0,0,0,0,0,0,0,0,0,0,0,0,0,0,0,0,0,0,0,0,0,0,0,0,0,0,0,0,0,0,0,0,0,0,0,0,0,0,0,0,0,0,0,0,0,0,0,0,0,0,0,0,0.7511,0.7512,0,0.7618,0.7619,0.7621,0.765,0.7649,0.7649,0.7648,0.7765,0.7769,0.7772,0,0,0,0,0,0,0,0,0,0,0,0,0,0.7339,0.7342,0.7511,0.7512,0.7513,0.7618,0.7619,0.7621,0.765,0.7649,0.7649,0.7648,0.7764,0.7768,0.7773,0,0,0,0,0,0,0,0,0,0,0,0,0,0.7427,0.7343,0.751,0.754,0.7544,0.7618,0.7619,0.7621,0.765,0.7649,0.7648,0.7647,0.7762,0.7768,0.7773,0.7827,0,0,0.779,0.7793,0,0,0,0,0,0,0,0,0.7422,0.7433,0.7535,0.7538,0.7543,0.7619,0.7602,0.769,0.7651,0.761,0.7648,0.7647,0.7718,0.7727,0.775,0.7832,0.7837,0.7791,0.7794,0.7797,0.7798,0,0,0,0,0,0,0,0.7416,0.7429,0.7553,0.7536,0.7541,0.7551,0.7563,0.7619,0.7668,0.7614,0.7616,0.7628,0.772,0.7744,0.7753,0.7839,0.7791,0.7796,0.7799,0.7801,0.7975,0.7976,0,0,0,0,0,0,0.7404,0.7424,0.755,0.7557,0.7479,0.7555,0.7568,0.7596,0.7668,0.7678,0.7629,0.7629,0.7735,0.7746,0.7757,0.7826,0.7797,0.7802,0.7805,0.7974,0.7975,0.7977,0,0,0,0,0,0,0.74,0.7415,0.7546,0.7491,0.7508,0.7559,0.759,0.7599,0.7623,0.7679,0.7689,0.7644,0.7735,0.7749,0.7809,0.783,0.7804,0.7809,0.7972,0.7974,0.7976,0.7963,0,0,0,0,0,0,0.7395,0.7413,0.7432,0.7491,0.7511,0.7594,0.7592,0.7601,0.7631,0.7633,0.7696,0.7705,0.7735,0.7801,0.7815,0.7838,0.7814,0.7971,0.7973,0.7975,0.7962,0.7965,0.7967,0,0,0,0,0,0.7389,0.7425,0.7432,0.7447,0.7535,0.7595,0.7607,0.7638,0.7633,0.7654,0.769,0.7703,0.7826,0.7807,0.7823,0.7847,0.7969,0.7972,0.7975,0.7961,0.7964,0.7967,0,0,0,0,0,0,0.7368,0.7433,0.7442,0.7498,0.754,0.7599,0.7626,0.764,0.7687,0.7686,0.7726,0.774,0.7798,0.7829,0.7807,0.7905,0.7898,0.7904,0.7882,0.7885,0.7888,0.7879,0.7818,0,0,0,0,0,0.737,0.7411,0.7466,0.751,0.7531,0.7575,0.7602,0.7623,0.767,0.7688,0.7729,0.7776,0.7826,0.7857,0.7906,0.7967,0.7983,0.7992,0.7995,0.7996,0.8001,0.8039,0.8044,0.7986,0.7986,0.7986,0,0,0.7375,0.7415,0.7439,0.7507,0.7543,0.7587,0.759,0.7636,0.767,0.7696,0.7755,0.7788,0.7843,0.7904,0.7934,0.7932,0.8021,0.8,0.8001,0.8005,0.8042,0.8048,0.8053,0.7988,0.7988,0.7987,0,0,0.7406,0.7439,0.748,0.7516,0.7569,0.7598,0.7608,0.7666,0.7688,0.7748,0.7769,0.7812,0.7895,0.7934,0.7965,0.8013,0.8028,0.8029,0.8041,0.8077,0.8081,0.8086,0.8105,0.8111,0.8033,0.8033,0.8033,0,0.7405,0.7469,0.7501,0.7546,0.7577,0.7601,0.7645,0.7679,0.7746,0.7768,0.7765,0.7872,0.7911,0.7983,0.7995,0.8018,0.8034,0.8021,0.8078,0.8082,0.8087,0.8106,0.8112,0.8033,0.8033,0.8033,0.8033,0,0.7468,0.7512,0.754,0.7602,0.7636,0.7681,0.7722,0.7753,0.7772,0.7803,0.7865,0.7913,0.7972,0.7991,0.801,0.8068,0.8065,0.8069,0.8063,0.8092,0.811,0.8117,0.8033,0.8033,0.8033,0.8033,0,0,0.7487,0.7567,0.7577,0.7606,0.7668,0.7704,0.7752,0.7808,0.7835,0.7882,0.7924,0.7996,0.8,0.8036,0.806,0.8091,0.8129,0.8092,0.8094,0.8099,0.8198,0.8195,0.8202,0.8139,0.8141,0.8142,0.8194,0,0.7527,0.7608,0.7639,0.7708,0.7751,0.7776,0.7818,0.7862,0.7893,0.7937,0.7973,0.8023,0.8024,0.8046,0.8078,0.8118,0.815,0.8114,0.8182,0.8184,0.8168,0.8212,0.8208,0.8255,0.8201,0.8202,0.8203,0,0.7583,0.7628,0.77,0.7758,0.7778,0.7814,0.787,0.791,0.7963,0.7983,0.8023,0.8046,0.81,0.8091,0.8167,0.8142,0.8173,0.8196,0.8199,0.8207,0.8195,0.8222,0.827,0.8277,0.8215,0.8214,0.8213,0,0.7591,0.7671,0.7725,0.7749,0.7818,0.7844,0.7874,0.7925,0.7958,0.8007,0.803,0.8086,0.8117,0.8161,0.82,0.8189,0.8274,0.8267,0.8295,0.8294,0.8312,0.831,0.8366,0.833,0.8329,0.8329,0.8329,0,0.7632,0.7676,0.773,0.7763,0.7814,0.7851,0.7901,0.7934,0.7979,0.8022,0.8048,0.8088,0.8136,0.8184,0.8215,0.8275,0.8289,0.8309,0.8317,0.8307,0.8304,0.8327,0.8326,0.8331,0.8331,0.833,0.833,0,0.765,0.7688,0.7749,0.7809,0.7825,0.786,0.7914,0.7949,0.7981,0.8035,0.805,0.8102,0.816,0.8202,0.8277,0.8298,0.8363,0.8371,0.8345,0.8349,0.8374,0.8372,0.8447,0.846,0.8414,0.8414,0.8415,0,0.7674,0.7708,0.7772,0.7801,0.7831,0.7878,0.7911,0.795,0.7985,0.8048,0.8076,0.8135,0.8184,0.8275,0.8321,0.838,0.839,0.8412,0.8399,0.8388,0.8392,0.839,0.8395,0.8414,0.8414,0.8415,0.8415,0,0.7713,0.773,0.7776,0.7829,0.7868,0.7912,0.7957,0.798,0.8028,0.8066,0.8124,0.8161,0.8238,0.8297,0.836,0.8395,0.8414,0.8419,0.8429,0.8419,0.8403,0.8414,0.8351,0.8417,0.8417,0.8417,0.8416,0.8416,0.7736,0.7768,0.7818,0.7869,0.7907,0.7949,0.7985,0.8022,0.807,0.8134,0.8155,0.8215,0.827,0.8357,0.8392,0.8443,0.8443,0.8456,0.846,0.8463,0.8463,0.8394,0.8454,0.8454,0.8454,0.8454,0.8454,0,0.7777,0.7811,0.7857,0.7918,0.796,0.7972,0.8023,0.8058,0.811,0.8158,0.8205,0.8274,0.8332,0.8383,0.8445,0.8475,0.8486,0.849,0.8489,0.8497,0.8459,0.8445,0.8481,0.8481,0.8481,0.8481,0.8481,0.8481,0.7803,0.7859,0.7882,0.7959,0.7993,0.8051,0.8079,0.812,0.8159,0.8233,0.828,0.8313,0.8364,0.8429,0.8485,0.8499,0.8521,0.8523,0.854,0.8503,0.85,0.8497,0.8484,0.8528,0.8528,0.8575,0.8575,0.8575]},{"header":{"parameterUnit":"m.s-1","parameterCategory":1,"la1":30.2991,"la2":30.254,"lo1":-89.0895,"lo2":-89.0444,"dy":0.0017,"dx":0.0017,"nx":28,"ny":28,"refTime":"2024-09-25T09:00:00:Z","depth":0,"parameterNumber":3,"parameterNumberName":"V-component_of_WINDS"},"data":[0,0,0,0,0,0,0,0,0,0,0,0,0,0,0,0,0,0,0,0,0,0,0,0,0,0,0,0,0,0,0,0,0,0,0,0,0,0,0,0,0,0,0,0,0,0,0,0,0,0,0,0,0,0,0,0,0,0,-8.2844,-8.2847,0,-8.3098,-8.3101,-8.3104,-8.3091,-8.3088,-8.3084,-8.308,-8.3337,-8.3347,-8.3357,0,0,0,0,0,0,0,0,0,0,0,0,0,-8.2347,-8.2356,-8.2844,-8.2847,-8.285,-8.3097,-8.3101,-8.3104,-8.3092,-8.3087,-8.3083,-8.3079,-8.3334,-8.3346,-8.3358,0,0,0,0,0,0,0,0,0,0,0,0,0,-8.2578,-8.2359,-8.2843,-8.2874,-8.2879,-8.3097,-8.3101,-8.3105,-8.3093,-8.3087,-8.3082,-8.3077,-8.333,-8.3345,-8.336,-8.3563,0,0,-8.3407,-8.3414,0,0,0,0,0,0,0,0,-8.2565,-8.2596,-8.2866,-8.2872,-8.2878,-8.3057,-8.302,-8.3259,-8.3094,-8.3011,-8.308,-8.3074,-8.3248,-8.327,-8.333,-8.3575,-8.3586,-8.3408,-8.3418,-8.3424,-8.3428,0,0,0,0,0,0,0,-8.2549,-8.2585,-8.2944,-8.287,-8.2877,-8.2875,-8.2901,-8.3065,-8.3157,-8.3018,-8.3018,-8.3048,-8.3251,-8.3315,-8.3335,-8.359,-8.3408,-8.3421,-8.3431,-8.3437,-8.4019,-8.4025,0,0,0,0,0,0,-8.2527,-8.2572,-8.2936,-8.2952,-8.2705,-8.2888,-8.2918,-8.3005,-8.3155,-8.3173,-8.3053,-8.3047,-8.3291,-8.3318,-8.3344,-8.3595,-8.3424,-8.3438,-8.3447,-8.4013,-8.402,-8.4027,0,0,0,0,0,0,-8.2516,-8.2559,-8.2926,-8.2762,-8.2809,-8.2902,-8.3,-8.3013,-8.3077,-8.3182,-8.3198,-8.3102,-8.3288,-8.3323,-8.351,-8.3604,-8.3445,-8.3459,-8.4005,-8.4015,-8.4024,-8.4096,0,0,0,0,0,0,-8.2502,-8.2555,-8.2633,-8.2764,-8.2817,-8.3087,-8.3006,-8.3022,-8.3104,-8.3099,-8.3231,-8.3248,-8.3287,-8.3487,-8.3525,-8.3622,-8.3471,-8.3997,-8.401,-8.4021,-8.4085,-8.4106,-8.4124,0,0,0,0,0,-8.2484,-8.2642,-8.2637,-8.2681,-8.2917,-8.3093,-8.3123,-8.3165,-8.3112,-8.3191,-8.3259,-8.3244,-8.3587,-8.3507,-8.3549,-8.3652,-8.3992,-8.4006,-8.402,-8.4076,-8.4102,-8.4124,0,0,0,0,0,0,-8.2517,-8.2659,-8.2656,-8.2861,-8.2965,-8.309,-8.3191,-8.319,-8.3311,-8.3301,-8.3347,-8.3377,-8.3565,-8.3627,-8.3535,-8.3858,-8.3783,-8.3806,-8.3811,-8.3836,-8.3855,-8.3837,-8.3484,0,0,0,0,0,-8.2549,-8.2681,-8.2797,-8.2966,-8.3019,-8.3097,-8.3175,-8.3199,-8.3308,-8.3352,-8.3433,-8.3539,-8.3671,-8.3757,-8.3884,-8.4094,-8.4124,-8.4186,-8.4205,-8.4221,-8.4241,-8.436,-8.4389,-8.4074,-8.4073,-8.4073,0,0,-8.2615,-8.2709,-8.2788,-8.2976,-8.3059,-8.3195,-8.3134,-8.3279,-8.338,-8.3373,-8.3556,-8.362,-8.3741,-8.3942,-8.4034,-8.3999,-8.4335,-8.4239,-8.425,-8.4262,-8.4377,-8.4407,-8.4434,-8.4083,-8.4081,-8.408,0,0,-8.2804,-8.2888,-8.304,-8.3126,-8.3255,-8.3306,-8.3342,-8.347,-8.3512,-8.3697,-8.3695,-8.3816,-8.4042,-8.413,-8.4204,-8.4432,-8.4424,-8.4472,-8.4574,-8.4689,-8.4714,-8.4736,-8.482,-8.4849,-8.4491,-8.4491,-8.4491,0,-8.2869,-8.3075,-8.3118,-8.3266,-8.3349,-8.3352,-8.3507,-8.3588,-8.3751,-8.3808,-8.3767,-8.4054,-8.4135,-8.4358,-8.4414,-8.4473,-8.4518,-8.4457,-8.4707,-8.473,-8.4751,-8.4832,-8.4863,-8.4496,-8.4496,-8.4495,-8.4495,0,-8.315,-8.3292,-8.34,-8.356,-8.3656,-8.3806,-8.3873,-8.3964,-8.3981,-8.4036,-8.4226,-8.4325,-8.4473,-8.4528,-8.4543,-8.4754,-8.4729,-8.4697,-8.4622,-8.4786,-8.4862,-8.4893,-8.4504,-8.4502,-8.45,-8.4499,0,0,-8.3365,-8.3551,-8.359,-8.3664,-8.3808,-8.3919,-8.4071,-8.4218,-8.4297,-8.441,-8.4539,-8.4732,-8.4705,-8.4789,-8.4815,-8.4917,-8.5094,-8.4873,-8.4877,-8.4912,-8.5335,-8.536,-8.5394,-8.509,-8.5096,-8.5101,-8.5326,0,-8.3571,-8.3842,-8.3887,-8.4124,-8.4258,-8.4264,-8.4397,-8.45,-8.4557,-8.4678,-8.474,-8.4878,-8.483,-8.4881,-8.4982,-8.5051,-8.518,-8.5036,-8.5211,-8.5217,-8.5182,-8.5434,-8.5459,-8.5667,-8.5356,-8.5361,-8.5364,0,-8.3847,-8.3971,-8.4222,-8.4352,-8.441,-8.4528,-8.4669,-8.4785,-8.4903,-8.4937,-8.5034,-8.5049,-8.5208,-8.5126,-8.5346,-8.5247,-8.5321,-8.5367,-8.5376,-8.5394,-8.5301,-8.5461,-8.5734,-8.5766,-8.5411,-8.5408,-8.5404,0,-8.3982,-8.4211,-8.4393,-8.4456,-8.461,-8.4694,-8.4763,-8.4875,-8.4962,-8.5085,-8.5142,-8.5281,-8.5357,-8.5465,-8.5518,-8.5453,-8.5735,-8.5657,-8.5769,-8.5768,-8.5828,-8.5824,-8.6119,-8.5874,-8.5874,-8.5873,-8.5872,0,-8.4209,-8.4362,-8.4456,-8.4567,-8.4741,-8.4792,-8.4962,-8.5028,-8.5129,-8.5254,-8.5267,-8.5383,-8.5446,-8.5572,-8.5614,-8.5791,-8.5825,-8.5858,-8.5867,-8.5858,-8.5854,-8.5908,-8.5895,-8.5881,-8.588,-8.5878,-8.5877,0,-8.4388,-8.4457,-8.4655,-8.4787,-8.4824,-8.4947,-8.506,-8.5168,-8.5226,-8.5384,-8.5424,-8.5514,-8.5664,-8.5727,-8.591,-8.5939,-8.6143,-8.614,-8.6104,-8.6107,-8.6217,-8.6206,-8.6557,-8.6607,-8.6328,-8.633,-8.6333,0,-8.4529,-8.4648,-8.4794,-8.488,-8.4952,-8.5089,-8.5179,-8.5234,-8.5328,-8.5473,-8.5565,-8.5715,-8.5839,-8.6077,-8.6159,-8.63,-8.6302,-8.6416,-8.6323,-8.6311,-8.6306,-8.6299,-8.6313,-8.6433,-8.6435,-8.6438,-8.6439,0,-8.4771,-8.4801,-8.493,-8.5075,-8.5182,-8.5297,-8.541,-8.5479,-8.5552,-8.5656,-8.5811,-8.5907,-8.6096,-8.6246,-8.6392,-8.6462,-8.6464,-8.6468,-8.6502,-8.6494,-8.6469,-8.6486,-8.6152,-8.646,-8.6458,-8.6456,-8.6455,-8.6454,-8.4937,-8.5045,-8.5166,-8.5312,-8.5403,-8.5509,-8.5619,-8.5692,-8.5822,-8.5982,-8.6007,-8.6173,-8.629,-8.6487,-8.6563,-8.6694,-8.6665,-8.6713,-8.6726,-8.6738,-8.6746,-8.6447,-8.672,-8.672,-8.6719,-8.6719,-8.6719,0,-8.5183,-8.5262,-8.5395,-8.5554,-8.567,-8.5663,-8.5788,-8.5885,-8.6031,-8.6141,-8.6264,-8.6443,-8.6589,-8.6684,-8.6831,-8.6918,-8.6923,-8.6955,-8.695,-8.6967,-8.6762,-8.6719,-8.6949,-8.6949,-8.6949,-8.6949,-8.6949,-8.6949,-8.5324,-8.5507,-8.5551,-8.5781,-8.5859,-8.6023,-8.6095,-8.6194,-8.6282,-8.6483,-8.6605,-8.6667,-8.6771,-8.6928,-8.7062,-8.7086,-8.714,-8.7175,-8.7197,-8.7004,-8.698,-8.6958,-8.6918,-8.7186,-8.7186,-8.7392,-8.7394,-8.7395]}]]